Miscellaneous Local Product
Issued by NWS Hastings, NE

Home | Current Version | Previous Version | Text Only | Print | Product List | Glossary Off
Versions: 1 2 3 4 5 6 7 8 9 10 11 12 13 14 15 16 17 18 19 20 21 22 23 24 25 26 27 28 29 30 31 32 33 34 35 36 37 38 39 40 41 42 43 44 45 46 47 48 49 50

000
AXUS43 KGID 050702
MISGRI

GID CWA HOURLY WEATHER ROUNDUP
NATIONAL WEATHER SERVICE HASTINGS NE
100 AM CST THU MAR 05 2015

NOTE: "FAIR" INDICATES FEW OR NO CLOUDS BELOW 12,000 FEET WITH NO
SIGNIFICANT WEATHER AND/OR OBSTRUCTIONS TO VISIBILITY.

...SOUTH CENTRAL NEBRASKA...

CITY           SKY/WX    TMP DP  RH WIND       PRES   REMARKS
GRAND ISLAND   CLEAR      5  -3  69 CALM      30.43S
HASTINGS       CLEAR      9  -2  61 CALM      30.41S
KEARNEY        CLEAR      9   0  66 CALM      30.40S
ORD            CLEAR      0  -7  72 SW3       30.39S
YORK           CLEAR      7   0  72 CALM      30.44S
AURORA         CLEAR      5  -2  72 CALM      30.42S
LEXINGTON      CLEAR      9   1  71 SE3       30.37F
HOLDREGE       CLEAR      7  -1  67 NE7       30.39S WCI  -4
HEBRON         CLEAR     12   1  61 CALM      30.46S

...NEBRASKA PANHANDLE...

CITY           SKY/WX    TMP DP  RH WIND       PRES   REMARKS
CHADRON        PTCLDY    -2  -8  76 SW3       30.26F
ALLIANCE       CLEAR      2  -4  76 S3        30.23S
SCOTTSBLUFF    CLEAR      7   1  76 E3        30.23F
SIDNEY         CLEAR     10   4  76 W10       30.24F WCI  -4

...WESTERN AND NORTH CENTRAL NEBRASKA...

CITY           SKY/WX    TMP DP  RH WIND       PRES   REMARKS
VALENTINE      CLEAR      0  -4  83 SW8       30.33F WCI -14
AINSWORTH      CLEAR      1  -3  81 SW5       30.33F WCI  -8
ONEILL         CLEAR      3  -3  78 CALM      30.39S
BROKEN BOW     CLEAR     -1  -7  75 CALM      30.36S
IMPERIAL         N/A     13   6  74 SW3       30.30F
NORTH PLATTE   CLEAR      6  -2  69 CALM      30.34S
MCCOOK         PTCLDY    14   3  61 NE3       30.35F

...EASTERN NEBRASKA...

CITY           SKY/WX    TMP DP  RH WIND       PRES   REMARKS
NORFOLK        CLEAR      2  -6  69 CALM      30.42F
SO SIOUX CITY  CLEAR      2  -6  69 CALM      30.48S
TEKAMAH        CLEAR      3  -4  72 NW3       30.49S
COLUMBUS       CLEAR      3  -9  55 CALM      30.46R
ALBION         MOCLDY     2  -6  70 CALM      30.42S
OMAHA EPPLEY   CLEAR      6  -2  69 N5        30.49S WCI  -3
OFFUTT AFB     CLEAR      7  -3  65 NE3       30.47S
MILLARD        CLEAR     10  -2  57 CALM      30.48S
LINCOLN        CLEAR      8  -2  63 N5        30.49R WCI   0
NEBRASKA CITY  CLEAR      7  -4  60 NE3       30.47S
BEATRICE       CLEAR      7  -1  69 N5        30.46R WCI  -2
FALLS CITY     CLEAR     12  -1  56 N5        30.48R WCI   4

...NORTHERN KANSAS...

CITY           SKY/WX    TMP DP  RH WIND       PRES   REMARKS
GOODLAND       CLEAR     15   9  76 W9        30.29F WCI   3
HILL CITY      MOCLDY    14   4  64 W7        30.37S WCI   4
NORTON         MOSUNNY   12   1  62 NE8       30.37  WCI   1
PHILLIPSBURG   CLEAR     18   7  62 NE8       30.42S WCI   7
SMITH CENTER   CLEAR     10   3  72 NE8       30.44R WCI  -1
BELOIT         CLEAR     12   3  67 NE5       30.44R WCI   4
HAYS           CLEAR     14   0  52 W6        30.38S WCI   5
RUSSELL        CLEAR     14   5  67 SW7       30.38S WCI   4
CONCORDIA      CLEAR     15   2  56 NE3       30.44R
SALINA         CLEAR     16   6  65 NW3       30.45R
TOPEKA         CLEAR     19   4  51 N9        30.45S WCI   8



USA.gov is the U.S. government's official web portal to all federal, state and local government web resources and services.